GFSSGP_con_mlcape_102.txt.gz
CAPE
0 0 0 0 0 0 0 0 0 0 0 0 0 96 145 215 144 38 779 826 628 601 798 798 414 252 272 218 162 169 207 369 505 480 509 411 248 212 267 278 306 256 107 0 0 0 0 0 0
0 0 0 0 0 0 0 0 0 0 0 0 0 73 504 492 998 956 753 958 861 739 854 682 430 251 175 131 162 150 106 103 160 296 311 258 244 222 221 207 262 206 37 0 0 0 14 0 0
0 0 0 0 0 0 0 0 0 0 0 0 0 131 390 491 1137 808 1023 1131 979 925 1034 831 506 171 82 79 103 64 42 22 8 43 131 201 216 203 221 247 249 258 40 0 0 27 8 0 0
0 0 0 0 0 0 0 0 0 0 0 0 0 0 512 742 1067 1209 1225 1226 869 865 967 1002 491 91 45 74 56 21 7 8 20 26 50 166 275 299 313 289 266 241 26 0 4 20 0 0 0
0 0 0 0 0 0 0 0 0 0 0 0 0 73 527 1252 1379 1530 1173 1104 554 797 942 953 461 152 0 89 98 42 28 8 0 3 31 89 165 222 230 174 137 51 3 0 0 0 0 0 0
0 0 0 0 0 0 0 0 0 0 0 163 320 427 497 1528 1570 1548 1218 972 777 665 922 1007 708 153 10 64 90 60 56 29 8 0 0 41 67 60 112 118 82 18 0 0 0 0 0 0 0
0 0 0 0 0 0 0 0 0 0 0 51 22 291 265 1327 1461 1559 1321 1094 881 956 920 919 820 376 74 64 111 86 78 75 38 4 0 4 37 90 146 124 102 38 0 0 0 0 0 0 0
0 0 0 0 0 0 0 0 0 0 0 0 0 79 320 1234 1263 1113 1287 1039 933 962 911 896 770 448 147 124 137 122 100 94 82 64 43 23 61 144 223 181 147 73 0 0 0 0 0 0 0
0 0 0 0 0 0 0 0 0 0 0 0 0 0 1 1430 1208 942 896 931 841 831 824 921 817 431 147 109 193 207 186 144 122 135 133 131 105 131 142 133 114 94 48 17 0 0 0 0 0
0 0 0 0 0 0 0 0 0 0 0 0 0 0 77 1450 1292 933 767 582 604 630 710 832 792 550 214 196 305 431 451 447 328 272 231 132 85 71 97 138 145 147 110 73 23 0 0 0 0
0 0 0 0 0 0 0 0 0 0 0 0 0 0 0 1060 1418 1185 1049 822 557 497 726 877 834 639 288 151 214 365 538 649 547 435 370 265 186 164 192 135 157 132 140 93 64 29 4 0 0
0 0 0 0 0 0 0 0 0 0 0 0 0 0 0 0 912 1388 1340 1189 836 564 606 1003 1025 846 689 450 405 372 388 469 445 559 517 376 173 126 130 131 123 125 116 92 88 43 10 0 0
0 0 0 0 0 0 0 0 0 0 0 0 0 0 0 0 1 538 1323 1397 1249 1100 735 711 990 961 844 720 804 610 567 737 765 764 737 658 334 177 136 116 106 104 111 95 43 27 7 0 0
0 0 0 0 0 0 0 0 0 0 0 0 0 0 0 0 0 0 32 484 986 1436 1416 1031 761 934 981 904 984 973 999 1016 983 1011 903 830 763 437 263 194 162 144 136 151 116 104 51 24 0
0 0 0 0 0 0 0 0 0 0 0 0 0 0 0 0 0 0 0 0 0 46 1113 1427 1290 1004 888 955 1087 1158 1161 1122 1060 965 891 810 882 765 469 351 325 249 214 187 158 152 116 88 25
0 0 0 0 0 0 0 0 0 0 0 0 0 0 0 0 0 0 0 0 0 0 0 1072 1523 1246 899 801 1141 1282 1213 1125 1079 964 934 961 922 864 653 542 475 442 357 282 266 259 228 192 125
0 0 0 0 0 0 0 0 0 0 0 0 0 0 0 0 0 0 0 0 0 0 16 216 1260 1238 1073 798 870 1067 1098 1151 1275 1218 1115 1136 1118 1077 933 795 724 607 522 436 394 332 294 331 234
0 0 0 0 0 0 0 0 0 0 0 0 0 0 7 0 0 0 0 0 0 0 126 481 806 940 984 748 643 966 1197 1229 987 944 947 877 978 1110 1071 997 940 850 726 674 520 527 397 349 350
0 0 0 0 0 0 0 0 0 0 0 0 0 0 0 0 0 0 0 0 0 33 83 199 261 384 546 597 755 681 492 577 559 673 792 926 867 763 691 689 725 731 652 668 610 531 436 440 331
0 0 0 0 0 0 0 0 0 0 0 0 0 0 0 0 0 0 0 0 0 0 50 91 64 3 0 0 0 0 0 0 0 0 0 0 0 0 0 0 0 5 46 128 332 516 450 362 451
0 0 0 0 0 0 0 0 0 0 0 0 0 0 0 0 0 0 0 0 0 0 0 0 0 0 0 0 0 0 0 0 0 0 0 0 0 0 0 0 0 0 0 0 7 245 362 406 583
0 0 0 0 0 0 0 0 0 0 0 0 0 0 0 0 0 0 0 0 0 0 0 0 0 0 0 0 0 0 0 0 0 0 0 0 0 0 0 0 0 0 0 0 0 125 267 367 250
0 0 0 0 0 0 0 0 0 0 0 0 0 0 0 0 0 0 0 0 0 0 0 0 0 0 0 0 0 0 0 0 0 0 0 0 0 0 0 0 0 0 0 0 0 0 86 288 314
0 0 0 0 0 0 0 0 0 0 0 0 0 0 0 0 0 0 0 0 0 0 0 0 0 0 0 0 0 0 0 0 0 0 0 0 0 0 0 0 0 0 0 0 0 0 0 0 47
0 0 0 0 0 0 0 0 0 0 0 0 0 0 0 0 0 0 0 0 0 0 0 0 0 0 0 0 0 0 0 0 0 0 0 0 0 0 0 0 0 0 0 0 0 0 0 0 0
0 0 0 0 0 0 0 0 0 0 0 0 0 0 0 0 0 0 0 0 0 0 0 0 0 0 0 0 0 0 0 0 0 0 0 0 0 0 0 0 0 0 0 0 0 0 0 0 0
0 0 0 0 0 0 0 0 0 0 0 0 0 0 0 0 0 0 0 0 0 0 0 0 0 0 0 0 0 0 0 0 0 0 0 0 0 0 0 0 0 0 0 0 0 0 0 0 7
0 0 0 0 0 0 0 0 0 0 0 0 0 0 0 0 0 0 0 0 0 0 0 0 0 0 0 0 0 0 0 0 0 0 0 0 0 0 0 0 0 0 0 0 0 0 0 0 0
0 0 0 0 0 0 0 0 0 0 0 0 0 0 0 0 0 0 0 0 0 0 0 0 0 0 0 0 0 0 0 0 0 0 0 0 0 0 0 0 0 0 0 0 0 0 0 0 0
0 2 0 3 0 0 0 0 0 0 0 0 0 0 0 0 0 0 0 0 0 0 0 0 0 0 0 0 0 0 0 0 0 0 0 0 0 0 0 0 0 1 0 0 0 0 0 0 0

GFSSGP_con_mlcape_105.txt.gz
CAPE
0 0 0 0 0 0 0 0 0 0 0 0 0 0 39 222 179 125 1212 1139 924 1191 1465 1109 609 420 640 880 753 693 691 679 532 254 322 119 31 46 116 99 273 517 524 146 7 0 0 0 0
0 0 0 0 0 0 0 0 0 0 0 0 0 4 263 637 1154 1171 1022 1279 1129 1370 1463 1058 682 530 509 579 664 623 642 638 502 499 477 210 87 99 167 254 336 351 141 0 0 0 0 0 16
0 0 0 0 0 0 0 0 0 0 0 0 0 0 98 898 1345 1418 1435 1410 1186 1263 1343 1138 791 591 509 368 385 516 586 573 523 548 457 238 181 201 281 291 194 135 37 0 0 21 18 0 5
0 0 0 0 0 0 0 0 0 0 0 0 0 0 386 1298 1355 1356 1556 1421 1135 1205 1147 1173 678 470 373 285 315 306 349 402 461 467 362 241 217 263 290 230 177 220 25 0 30 55 0 0 0
0 0 0 0 0 0 0 0 0 0 0 0 10 36 512 1648 1844 1854 1598 1409 1057 1197 1203 1058 447 281 265 272 197 106 45 50 93 152 209 242 251 264 254 172 178 224 27 0 34 32 9 0 0
0 0 0 0 0 0 0 0 0 0 0 0 181 258 614 1892 1876 1859 1654 1356 1063 1132 1263 1112 507 227 157 241 189 90 42 49 60 75 128 192 231 248 207 147 130 85 13 0 16 12 0 0 0
0 0 0 0 0 0 0 0 0 0 0 1 10 328 236 1745 2003 1918 1695 1367 1211 1219 1378 1019 592 327 193 290 202 115 64 48 35 42 91 136 156 163 131 76 47 22 0 0 0 0 0 0 0
0 0 0 0 0 0 0 0 0 0 0 0 0 1 30 1320 2012 1847 1733 1447 1318 1313 1291 1136 777 402 275 469 278 138 107 86 57 41 38 96 132 106 83 70 81 75 14 0 0 0 0 0 0
0 0 0 0 0 0 0 0 0 0 0 0 0 0 0 976 1594 1758 1588 1370 1326 1241 1323 1297 1088 733 462 357 569 354 264 210 165 137 101 77 100 178 332 243 238 162 73 30 2 0 0 0 0
0 0 0 0 0 0 0 0 0 0 0 0 0 0 372 1362 1628 1268 1187 975 1022 1025 1139 1310 1254 921 619 462 652 675 595 493 490 438 476 256 335 359 296 341 181 136 100 60 41 22 5 0 0
0 0 0 0 0 0 0 0 0 0 0 0 0 0 0 579 1703 1391 1208 989 940 1130 1174 1359 1358 1212 679 329 649 781 790 822 780 770 723 574 428 315 182 181 188 206 164 135 107 124 65 22 9
0 0 0 0 0 0 0 0 0 0 0 0 0 0 0 0 442 1700 1390 1235 1213 1271 1320 1430 1481 1374 1086 555 592 644 627 813 672 713 838 707 502 434 367 327 278 414 225 189 197 86 80 24 7
0 0 0 0 0 0 0 0 0 0 0 0 0 0 0 0 0 9 1239 1642 1495 1216 1188 1418 1583 1547 1325 983 757 775 625 812 835 964 955 875 686 607 558 490 509 411 370 328 289 224 185 129 79
0 0 0 0 0 0 0 0 0 0 0 0 0 0 0 0 0 0 0 1091 1765 1682 1328 1302 1467 1573 1559 1292 1247 1083 1028 979 1104 999 1082 1085 894 668 764 737 627 518 449 401 348 331 316 273 225
0 0 0 0 0 0 0 0 0 0 0 0 0 0 0 0 0 0 0 0 158 1451 1879 1766 1572 1901 1753 1562 1611 1548 1426 1342 1376 1323 1556 1435 1172 912 965 974 910 772 751 670 588 547 478 453 407
0 0 0 0 0 0 0 0 0 0 0 0 0 0 0 0 0 0 0 0 0 0 373 2163 1919 1734 1745 1728 1689 1707 1762 1741 1698 1653 1555 1460 1335 1122 887 1036 1042 1127 1065 887 821 771 732 656 535
0 0 0 0 0 0 0 0 0 0 0 0 0 0 0 0 0 0 0 0 0 0 0 108 1403 1749 1729 1586 1645 1667 1604 1566 1638 1754 1725 1674 1612 1617 1287 1407 1512 1500 1271 1251 1108 1091 883 845 913
0 0 0 0 0 0 0 0 0 0 0 0 0 0 0 0 0 0 0 0 0 0 31 416 947 1601 1658 1618 1559 1554 1559 1577 1680 1836 1820 1834 1812 1801 1697 1621 1463 1448 1398 1339 1228 1061 1227 1004 960
0 0 0 0 0 0 0 0 0 0 0 0 0 0 0 0 0 0 0 0 0 6 106 780 872 1223 1298 1328 1368 1492 1570 1582 1873 1976 1705 1527 1465 1385 1440 1434 1338 1224 860 790 924 977 939 694 741
0 0 0 0 0 0 0 0 0 0 0 4 0 0 0 0 5 0 0 0 0 35 329 720 990 1127 1309 1026 872 686 446 202 132 55 145 218 124 121 98 29 0 0 0 33 33 90 26 31 213
0 0 0 0 0 0 0 0 0 0 0 0 0 0 0 0 0 0 0 0 0 75 311 351 249 354 451 183 12 1 0 0 0 0 0 0 0 0 0 0 0 0 0 0 0 0 0 0 0
0 0 0 0 0 0 0 0 0 0 0 0 0 0 0 0 0 0 0 0 0 114 136 55 12 3 0 0 0 0 0 0 0 0 0 0 0 0 0 0 0 0 0 0 0 0 0 0 0
0 0 0 0 0 0 0 0 0 0 0 0 0 0 0 0 0 0 0 1 5 10 0 0 0 0 0 0 0 0 0 0 0 0 0 0 0 0 0 0 0 0 0 0 0 0 0 0 0
0 0 0 0 0 0 0 0 0 0 0 0 0 0 0 0 0 12 40 16 1 0 0 0 0 0 0 0 0 0 0 0 0 0 0 0 0 0 0 0 0 0 0 10 15 33 37 12 0
0 0 0 0 0 0 0 0 0 0 0 0 0 0 0 1 14 1 0 0 0 0 0 0 0 0 0 0 0 0 0 0 0 0 0 0 0 0 0 0 0 0 0 0 0 5 13 17 2
0 0 0 0 0 0 0 0 0 0 0 0 0 0 0 0 0 0 0 0 0 0 0 0 0 0 0 0 0 0 0 0 0 0 0 0 0 0 0 0 0 0 0 0 0 0 0 0 1
0 0 0 0 0 0 0 0 0 0 0 0 0 0 0 0 0 0 0 0 0 0 0 0 0 0 0 0 0 0 0 0 0 0 0 0 0 0 0 0 0 0 0 0 0 0 0 0 0
0 0 3 0 0 0 0 0 0 0 0 0 0 0 0 0 0 0 0 0 0 0 0 0 0 0 0 0 0 0 0 0 0 0 0 0 0 0 0 0 0 0 0 0 0 0 0 0 0
0 0 0 2 0 9 2 0 0 0 0 0 0 0 0 0 0 0 0 0 0 0 0 0 0 0 0 0 0 0 0 0 0 0 0 0 0 0 0 0 0 0 0 0 0 1 0 0 0
0 0 8 17 13 0 6 12 0 0 0 0 0 0 0 0 0 0 0 0 0 0 0 0 0 0 0 0 0 0 0 0 0 0 0 0 0 0 0 0 0 0 0 0 0 0 0 0 0

GFSSGP_con_mlcape_108.txt.gz
CAPE
0 0 0 0 0 0 0 0 0 0 0 0 0 0 0 61 234 1007 1866 1258 522 1167 1802 1219 838 929 1179 1473 1522 895 605 559 250 87 262 263 203 223 160 572 782 738 383 182 41 0 0 0 0
0 0 0 0 0 0 0 0 0 0 0 0 0 0 10 445 1316 1922 1787 1389 1062 1504 1710 1281 766 979 1296 1616 1500 910 805 603 388 267 261 241 257 229 215 399 626 646 357 49 0 0 0 0 0
0 0 0 0 0 0 0 0 0 0 0 0 0 0 0 492 1661 1914 1733 1265 1252 1567 1607 1418 759 862 1098 1230 1274 1062 967 725 453 309 389 280 188 193 266 398 418 383 50 0 0 0 0 18 33
0 0 0 0 0 0 0 0 0 0 0 0 0 0 6 1594 1740 1686 1510 1358 1491 1533 1376 1408 660 661 814 852 848 877 881 788 548 626 449 271 208 218 276 275 176 122 0 0 0 99 29 0 18
0 0 0 0 0 0 0 0 0 0 0 0 0 1 80 2282 2336 1987 1369 1357 1261 1263 1256 1067 563 430 526 679 788 761 744 736 663 626 434 255 244 244 273 193 122 135 0 0 41 118 37 0 0
0 0 0 0 0 0 0 0 0 0 0 0 0 82 238 2378 2518 1918 1464 1402 1120 1062 1258 948 762 485 445 463 488 534 598 563 531 512 325 245 232 236 183 82 67 107 24 0 38 69 31 0 0
0 0 0 0 0 0 0 0 0 0 0 0 18 6 407 1878 2627 1952 1910 1693 1107 998 1207 1050 552 694 527 435 328 247 226 241 227 174 195 259 262 252 173 90 92 92 24 0 3 27 19 12 10
0 0 0 0 0 0 0 0 0 0 0 0 0 0 135 1976 2566 2249 1988 1630 1100 992 1043 964 469 299 275 522 528 251 155 140 115 130 165 210 252 247 170 114 69 62 23 0 0 0 0 0 0
0 0 0 0 0 0 0 0 0 0 0 0 0 0 0 1373 2429 2322 2117 1727 1184 915 983 894 666 322 157 211 576 517 460 365 258 216 293 198 78 216 251 53 210 75 74 24 1 0 0 0 0
0 0 0 0 0 0 0 0 0 0 0 0 0 0 288 1198 2107 1988 1936 1723 1332 1039 1056 1083 1134 672 290 218 600 340 330 233 191 154 246 91 53 111 48 110 141 212 173 51 17 6 0 0 0
0 0 0 0 0 0 0 0 0 0 0 0 0 0 4 1332 1992 1684 1713 1416 1165 1063 1057 1120 1674 1297 685 429 649 418 443 377 509 537 705 306 369 220 90 61 158 131 61 25 41 46 29 0 0
0 0 0 0 0 0 0 0 0 0 0 0 0 0 0 0 1899 1967 1733 1572 1265 1090 1127 1311 1713 1801 1154 594 664 668 669 698 811 922 1075 830 897 646 476 231 203 228 107 84 65 36 31 44 34
0 0 0 0 0 0 0 0 0 0 0 0 0 0 0 0 0 262 1564 2120 1870 1672 1362 1434 1732 1981 1788 960 760 761 775 916 941 999 1194 1035 963 832 914 751 766 613 582 520 580 411 391 345 304
0 0 0 0 0 0 0 0 0 0 0 0 0 0 0 0 0 0 0 220 2215 2404 1991 1675 1792 2079 2081 1650 1156 1036 1009 931 1121 1133 1253 1407 1263 1173 1092 1114 1062 975 906 863 756 767 789 749 735
0 0 0 0 0 0 0 0 0 0 0 0 0 0 0 0 0 0 0 0 0 397 2370 2179 1947 2143 2425 2240 1817 1635 1269 1171 1265 1276 1571 1617 1651 1448 1356 1175 1125 1014 1024 1271 1201 1174 1078 1014 929
0 0 0 0 0 0 0 0 0 0 0 0 0 0 0 0 0 0 0 0 0 0 251 2660 2387 2252 2617 2385 2182 1882 1712 1678 1556 1723 1861 2006 1859 1699 1645 1279 1411 1537 1583 1512 1476 1528 1403 1269 1185
0 0 0 0 0 0 0 0 0 0 0 0 0 0 0 0 0 0 0 5 0 8 2 162 2342 2478 2923 2691 2361 2123 2050 2151 1971 1940 1908 2075 1972 1821 1730 1768 2008 2003 1962 1780 1677 1670 1570 1550 1476
0 0 0 0 0 0 0 0 0 0 0 0 0 0 0 0 0 0 18 35 27 8 107 386 1442 2622 2818 2825 2648 2465 2306 2220 2189 2119 2192 2401 2405 2135 2316 2175 2167 2027 1794 1719 1527 1489 1429 1263 1102
0 0 0 0 0 0 0 0 0 0 0 0 0 0 0 0 17 5 0 34 0 2 66 913 1781 2287 2500 1029 2632 2492 2241 2218 2143 2176 2421 2433 2390 2266 2278 2196 1538 1409 924 527 480 345 276 260 203
0 0 0 0 0 0 0 0 0 0 0 0 0 0 8 0 11 53 9 0 19 247 217 904 2217 2060 2134 2057 2359 2299 2250 2179 2336 2081 1786 1455 1240 1017 787 421 79 26 0 3 55 35 0 0 0
0 0 0 0 0 0 0 0 0 0 0 0 0 1 5 13 25 7 11 25 8 184 42 107 1313 2505 2467 2302 1619 848 586 396 75 51 71 128 123 68 50 15 3 0 4 0 0 0 0 0 0
0 0 0 0 0 0 0 1 0 0 0 0 0 0 0 3 35 75 78 17 148 321 813 1406 1790 1964 1987 1555 921 137 56 39 11 0 0 2 26 1 0 3 0 0 0 0 0 0 0 0 0
0 0 0 0 0 0 2 0 21 0 0 0 0 0 0 29 51 15 59 19 263 769 937 530 391 194 110 207 171 78 1 5 2 3 43 62 28 1 0 0 0 0 0 0 0 0 0 0 0
0 0 0 0 0 5 1 17 24 12 0 0 0 0 0 162 221 238 222 381 650 704 492 199 29 8 32 61 97 86 56 10 0 11 0 0 0 0 0 0 0 0 0 0 0 13 22 47 21
0 0 0 0 1 2 14 2 5 0 0 0 5 37 60 146 340 413 438 451 319 225 116 43 8 0 0 0 0 0 0 0 0 0 0 0 0 0 0 0 0 0 0 0 0 10 22 25 13
0 0 1 17 16 29 0 0 39 5 37 42 75 106 199 355 443 462 419 275 143 112 39 0 0 0 0 0 0 0 0 0 0 0 0 0 0 0 0 0 0 0 0 0 0 0 0 4 6
4 0 2 23 22 10 34 4 4 0 45 72 112 157 199 226 266 254 191 110 27 2 0 0 0 0 0 0 0 0 0 0 0 0 0 0 0 0 0 0 0 0 0 0 0 0 0 0 2
2 16 7 15 30 34 26 40 53 19 7 53 90 143 88 31 3 0 0 0 0 0 0 0 0 0 0 0 0 0 0 0 0 0 0 0 0 0 0 0 0 0 0 0 1 0 0 0 0
0 9 28 79 52 61 59 31 65 56 40 80 126 116 22 0 0 0 0 0 0 0 0 0 0 0 0 0 0 0 0 0 0 0 0 0 0 0 0 0 0 0 0 0 0 2 3 4 6
50 54 65 61 58 50 70 74 27 18 87 119 88 53 8 0 0 0 0 0 0 0 0 0 0 0 0 0 0 0 0 0 0 0 0 0 0 0 0 0 0 0 0 0 0 0 0 1 4

GFSSGP_con_mlcape_111.txt.gz
CAPE
0 0 0 0 0 0 0 0 35 26 2 9 0 0 0 0 167 1744 1829 1497 998 1642 1594 1341 1050 1087 1222 1384 1178 667 281 228 127 0 34 228 197 461 776 862 636 484 374 131 8 0 0 0 0
0 0 0 0 0 0 0 0 51 1 37 0 0 0 0 69 1236 2007 2109 1151 1274 1899 1794 1687 1162 998 1142 1297 1329 816 532 461 147 7 126 193 317 515 701 800 769 569 263 33 0 0 4 0 0
0 0 0 0 0 0 0 14 36 8 0 0 0 0 0 61 1711 1911 2423 1275 1453 1776 1726 1930 1198 1051 1235 1434 1321 983 779 595 184 65 166 259 428 414 437 543 721 560 137 0 0 0 0 0 0
0 0 0 0 0 0 0 0 0 0 0 0 0 0 0 1023 970 1954 1920 1264 1658 1591 1420 1769 1129 1013 1197 1417 1306 947 837 558 187 125 283 348 354 346 263 354 399 221 0 0 0 16 0 21 69
0 0 0 0 0 0 0 0 0 0 0 0 0 0 26 2294 2198 1969 1443 1496 1435 1164 1540 1641 1070 1023 1229 1457 1360 962 882 591 317 289 393 319 307 248 240 154 85 5 0 0 0 43 0 0 0
0 0 0 0 0 0 0 0 0 0 0 0 0 0 181 2323 2243 1575 1560 1588 1160 941 1511 1167 1105 1033 1174 1255 1193 996 960 835 626 621 532 347 239 229 211 100 52 41 0 0 4 25 4 0 0
0 0 0 0 0 0 0 0 0 0 0 0 0 39 646 1674 2170 1701 1853 1712 1299 939 1193 927 668 978 977 1003 1020 1027 927 890 808 764 586 351 257 215 180 90 53 110 28 0 0 9 2 0 6
0 0 0 0 0 0 0 0 0 0 0 0 0 0 52 2057 2262 1930 2224 1878 1426 1057 995 813 442 460 457 721 798 842 883 891 804 689 424 323 301 273 174 70 41 74 0 0 0 0 0 0 0
0 0 0 0 0 0 0 0 0 0 0 0 0 0 0 156 2237 1998 2043 1883 1448 1122 1018 804 620 409 187 210 639 503 486 401 279 252 321 234 70 213 331 50 128 8 23 3 0 0 0 0 0
0 0 0 0 0 0 0 0 0 0 0 0 0 0 0 0 1715 2015 2055 1909 1538 1146 994 815 749 561 288 260 697 224 152 98 101 107 329 114 22 100 38 54 45 157 68 67 23 0 0 0 0
0 0 0 0 0 0 0 0 0 0 0 0 0 0 0 122 992 1472 1678 1603 1430 1172 1039 806 969 747 405 251 939 247 254 177 248 275 517 126 46 80 21 147 226 304 122 71 46 79 49 1 0
0 0 0 0 0 0 0 0 0 0 0 0 0 0 0 0 636 1090 1179 1106 1076 1104 1036 907 1370 1207 840 398 760 369 371 376 507 646 868 560 575 464 146 2 23 123 49 81 33 21 38 47 41
0 0 0 0 0 0 0 0 0 0 0 0 0 0 0 0 0 636 1694 1048 520 713 523 585 1209 1329 1312 986 710 671 541 625 663 815 1055 1135 936 968 960 685 463 278 223 136 245 185 155 180 249
0 0 0 0 0 0 0 0 0 0 0 0 0 0 0 0 0 0 175 657 794 1064 1065 1002 1224 2046 1931 1419 989 956 980 915 974 810 985 1195 1123 1087 950 1051 877 745 637 529 508 548 622 714 668
0 0 0 0 0 0 0 0 0 0 0 0 0 0 0 0 0 0 0 0 171 1402 825 590 2010 2381 2464 2120 1520 1319 1066 1098 1075 1032 1320 1561 1646 1525 1446 1079 1062 871 925 1017 1228 1400 1340 1271 1141
0 0 0 0 0 0 0 0 0 0 0 0 0 0 0 0 0 0 0 0 0 0 210 2327 2627 2691 2639 2367 2079 1863 1588 1208 1238 1174 1459 1526 1766 1740 1822 1399 1197 1389 1775 1495 1666 1559 1666 1588 1168
0 0 0 0 0 0 0 0 0 0 0 0 0 0 0 0 0 0 0 0 0 0 0 680 2175 2193 2683 2111 2170 1742 1358 417 1336 1889 1866 2063 1954 1919 1809 1708 1696 2128 1569 1853 1486 1819 1605 1603 1548
0 0 0 0 0 0 0 0 0 0 0 0 0 0 0 0 0 0 20 8 29 76 120 108 1040 1729 2669 2399 2702 2282 2048 2043 2208 2135 1859 2337 2202 1919 2234 2031 2111 2380 1720 1836 1314 1354 1235 1057 744
0 0 0 0 0 0 0 0 0 0 0 0 0 0 0 0 0 3 55 88 66 4 214 321 1559 2517 2549 2416 2012 2408 2272 2508 2207 2334 2239 2195 1610 1647 2003 2396 2123 2242 1538 708 820 605 272 151 106
0 0 0 0 0 0 0 0 0 0 0 0 0 0 0 0 0 52 65 75 46 238 180 210 1433 2452 2772 1528 1890 1855 2183 1872 2140 2472 2393 2252 1909 1938 2158 1786 701 250 195 78 102 195 54 0 0
0 0 0 0 0 0 0 0 0 0 0 0 0 0 0 0 2 38 127 168 143 352 538 386 466 1756 2210 2398 2750 2708 2688 2266 1932 1557 1162 981 561 362 317 231 160 59 39 0 3 13 9 0 0
0 0 0 0 0 0 9 0 11 0 0 0 0 0 1 9 5 24 82 235 173 117 127 12 167 1607 3034 2894 2196 2042 1660 1111 331 70 54 107 91 47 33 65 41 51 24 13 2 0 0 0 0
0 0 0 0 0 0 0 1 8 2 0 0 0 0 6 4 10 57 125 198 287 363 318 418 758 2415 2256 2470 2395 1721 867 275 101 34 191 107 227 167 103 55 73 91 94 61 210 80 47 2 0
0 0 0 0 0 0 0 27 27 21 4 2 0 0 8 16 20 46 118 192 357 771 1073 1674 1456 878 781 611 702 774 385 342 162 198 178 67 26 90 31 13 14 12 97 72 44 61 138 112 56
0 0 0 0 0 0 15 27 1 2 0 4 0 10 0 41 103 133 269 361 619 964 997 757 578 471 303 152 159 197 184 141 126 81 22 36 3 0 0 0 0 0 0 4 4 8 50 91 72
0 0 0 11 8 17 14 23 34 4 0 0 13 30 40 107 182 304 401 540 704 786 769 468 326 162 110 69 25 35 14 0 0 0 0 0 0 0 0 0 0 0 0 0 0 0 0 0 0
3 0 0 15 5 19 10 12 93 27 1 0 36 107 180 233 292 315 421 368 456 491 428 342 160 53 12 3 7 1 0 0 0 0 0 0 0 0 0 0 0 0 0 0 0 0 0 0 0
0 6 7 5 15 54 30 29 12 3 3 1 14 106 226 301 344 394 359 298 246 155 106 72 48 6 0 0 0 0 0 0 0 0 0 0 0 0 0 0 0 0 0 0 1 1 3 7 4
0 1 29 34 4 1 33 9 25 36 28 4 49 159 218 211 159 175 171 112 34 4 1 0 0 0 0 0 0 0 0 0 0 0 0 0 0 0 0 0 0 0 0 1 3 6 6 5 6
9 12 59 79 49 41 40 45 1 0 12 82 117 201 174 113 85 29 1 0 0 0 0 0 0 0 0 0 0 0 0 0 0 0 0 0 0 0 0 0 1 1 2 6 9 5 9 7 7

GFSSGP_con_mlcape_114.txt.gz
CAPE
0 0 0 0 0 0 0 0 0 0 2 0 0 0 0 0 1263 1498 1572 1395 1644 1879 1414 1066 944 1014 1050 707 505 257 46 0 0 0 11 47 186 370 414 328 385 414 394 257 13 0 0 0 0
0 0 0 0 0 0 0 0 0 0 2 0 0 0 0 851 2011 1545 1043 1562 1748 1988 1248 1234 1042 928 993 909 691 330 72 23 5 0 21 74 211 425 612 514 506 397 228 38 0 0 0 0 0
0 0 0 0 0 0 0 0 6 17 5 0 0 0 0 1154 1491 2437 1185 1919 1711 1759 1618 1569 1292 1135 1064 971 742 456 175 135 20 0 35 85 212 356 612 762 632 354 125 15 0 0 0 0 6
0 0 0 0 0 0 0 0 0 11 0 0 0 0 0 366 1234 2549 1560 2019 1878 1726 1836 1443 1120 1140 1080 1022 823 533 368 339 24 0 65 72 148 191 379 501 523 263 41 0 0 0 0 0 12
0 0 0 0 0 0 0 0 0 0 0 0 0 0 13 1377 1590 2199 1381 1788 1780 1361 2286 1363 1045 1018 1002 1027 1037 748 570 360 20 9 99 179 194 126 221 274 258 43 0 0 0 0 0 0 0
0 0 0 0 0 0 0 0 0 0 0 0 0 0 27 2022 1655 1682 1287 1551 1278 1408 1984 1176 1064 937 983 1055 1061 799 619 349 52 108 265 257 159 145 210 170 56 0 0 0 0 0 0 0 0
0 0 0 0 0 0 0 0 0 0 0 0 0 0 1268 1722 1537 1196 1329 1246 802 1503 1550 1068 1045 1183 1091 1086 1060 830 663 386 252 233 346 233 146 163 234 119 43 17 0 0 0 0 0 0 0
0 0 0 0 0 0 0 0 0 0 0 0 0 0 15 1846 1305 426 610 1327 904 1066 1054 764 951 1116 1214 1203 1079 885 823 649 455 454 420 208 109 112 101 22 0 0 0 0 0 0 0 0 0
0 0 0 0 0 0 0 0 0 0 0 0 0 0 0 566 153 221 77 65 1089 885 878 470 530 776 645 931 1086 907 846 780 619 576 442 231 136 139 138 0 0 0 0 0 0 0 0 0 0
0 0 0 0 0 0 0 0 0 0 0 0 0 0 0 0 41 5 0 1157 1326 918 874 497 463 388 181 220 829 755 834 751 580 444 255 111 44 122 106 42 36 7 0 0 0 0 0 0 0
0 0 0 0 0 0 0 0 0 0 0 0 0 0 0 0 5 794 970 1303 1241 1045 1005 491 571 382 141 154 270 337 323 219 119 88 326 76 2 229 20 212 40 28 52 6 1 0 0 0 0
0 0 0 0 0 0 0 0 0 0 0 0 0 0 0 0 11 147 778 913 1142 869 714 475 606 472 281 630 147 194 213 196 199 310 579 9 304 283 28 223 96 124 173 4 16 28 52 44 15
0 0 0 0 0 0 0 0 0 0 0 0 0 0 0 0 0 0 105 1610 719 639 478 34 290 680 442 723 708 335 386 293 465 513 825 519 419 468 249 261 88 444 166 97 102 36 141 240 24
0 0 0 0 0 0 0 0 0 0 0 0 0 0 0 0 0 0 0 268 879 165 17 0 0 468 1055 1219 978 556 656 478 633 846 933 1184 1020 1290 1008 977 1048 787 794 561 353 298 430 326 365
0 0 0 0 0 0 0 0 0 0 0 0 0 0 0 0 0 0 0 0 670 19 1 0 2 147 1237 1542 1799 995 1218 994 960 1142 1303 996 1276 1585 1251 1369 864 795 700 682 756 1007 1066 936 829
0 0 0 0 0 0 0 0 0 0 0 0 0 0 0 0 0 0 0 0 0 17 0 0 0 3 56 1303 1630 1390 1451 1142 857 468 990 1573 1408 1464 1601 1480 1494 1489 1491 1257 1344 1406 1171 1286 508
0 0 0 0 0 0 0 0 0 0 0 0 0 0 0 0 0 0 0 0 0 181 321 210 0 0 0 615 279 1319 1626 780 4 138 67 283 1671 1471 1045 1099 1454 1556 1336 1332 1101 956 1271 1171 1076
0 0 0 0 0 0 0 0 0 0 0 0 0 0 0 0 0 0 0 0 8 8 911 359 63 158 416 0 0 178 1498 600 6 0 0 14 279 1 0 379 396 695 601 371 666 1366 1305 786 666
0 0 0 0 0 0 0 0 0 0 0 0 0 0 0 0 0 0 0 10 118 276 384 1232 1389 1486 641 816 894 1476 1781 2133 1431 50 0 5 571 874 251 0 0 1056 1256 1299 714 607 221 79 10
0 0 0 0 0 0 0 0 0 0 0 0 0 0 0 0 0 0 0 85 239 413 1163 768 1538 1684 1780 1430 1332 1445 1287 1684 1691 1789 1898 1669 910 1544 1755 1669 1369 993 116 80 36 104 47 0 0
0 0 0 0 0 0 0 0 0 0 0 0 0 0 0 0 0 0 30 79 64 392 920 1024 1974 1885 1675 1701 1562 1371 1906 1464 1466 2087 2058 1884 1677 1657 478 649 241 7 14 1 2 45 51 7 0
0 0 0 0 0 0 0 0 0 0 0 0 0 0 0 0 0 0 48 122 98 361 216 130 412 1395 1807 1607 1740 194 869 1080 894 445 328 172 93 50 64 45 27 36 55 15 0 0 10 9 0
0 0 0 0 0 0 0 0 0 3 0 0 0 0 0 0 0 0 0 172 128 439 480 176 434 550 1598 1492 2498 1071 1459 898 142 88 34 142 75 85 91 55 62 95 118 87 112 95 97 129 102
0 0 0 0 0 0 0 0 0 26 0 0 0 0 0 0 0 6 138 179 213 222 275 711 1026 1008 756 830 1891 1019 500 412 228 431 157 95 212 169 99 50 79 85 93 60 52 104 72 146 157
0 2 3 2 2 0 0 0 0 2 0 0 0 0 0 5 25 74 177 180 314 445 1404 1547 797 694 529 498 416 333 206 135 133 68 54 46 10 0 8 0 2 6 10 19 5 0 0 0 0
0 0 0 1 0 2 0 0 16 17 0 0 0 0 1 0 60 154 128 236 757 1072 837 562 438 319 193 159 100 22 39 0 0 0 5 1 0 0 0 0 0 0 0 0 0 0 0 0 0
0 0 0 3 10 0 10 33 19 8 0 0 2 30 6 32 124 236 434 506 758 595 395 349 225 161 117 66 10 0 0 0 0 0 0 0 0 0 0 0 0 0 0 0 0 0 0 0 0
1 0 0 0 0 2 33 76 38 29 10 1 13 56 78 144 251 296 301 364 299 246 226 146 103 56 6 0 0 0 0 0 0 0 0 0 0 0 0 0 0 0 0 0 0 0 0 1 5
0 0 0 27 0 25 41 32 1 0 1 6 38 80 184 262 233 196 201 179 107 62 33 12 0 0 0 0 0 0 0 0 0 0 0 0 0 0 0 0 0 0 0 0 0 2 1 2 8
0 0 0 0 13 1 26 0 0 14 0 0 3 143 183 272 215 123 76 26 9 0 0 0 0 0 0 0 0 0 0 0 0 0 0 0 0 0 0 0 0 0 0 0 0 0 4 5 8

GFSSGP_con_mlcape_117.txt.gz
CAPE
0 0 0 0 0 0 0 0 0 0 0 0 0 0 1 1357 1081 384 1319 1340 1040 672 929 1452 973 707 432 142 16 0 0 0 0 0 0 0 35 22 2 57 158 250 263 77 0 0 0 0 0
0 0 0 0 0 0 0 0 0 0 4 1 0 0 5 1350 1265 533 1125 1720 746 761 789 1358 1229 746 405 259 81 0 0 0 0 0 0 0 31 39 59 104 135 164 77 0 0 0 0 0 0
0 0 0 0 0 0 0 0 0 0 2 0 0 0 50 1371 1205 1354 1691 1647 1034 635 686 1063 1278 838 493 380 175 0 0 0 0 0 0 0 0 39 64 114 168 128 16 0 0 0 0 0 0
0 0 0 0 0 0 0 0 0 0 0 0 0 0 31 1701 1937 1575 1756 1779 807 819 850 1011 1080 971 720 513 270 14 0 0 0 0 0 0 1 106 253 281 190 95 7 0 0 0 0 0 0
0 0 0 0 0 0 0 0 0 0 0 7 0 14 731 2175 1822 1652 1605 1648 854 1199 1267 1118 1086 999 898 697 496 152 36 13 0 0 0 0 10 125 368 460 276 73 0 0 0 0 0 0 0
0 0 0 0 0 0 0 0 0 0 0 0 0 0 1231 1838 1680 1479 1577 1508 1164 1552 1558 1114 1271 1074 987 831 682 492 309 130 0 8 22 11 36 141 293 369 252 13 0 0 0 0 0 0 0
0 0 0 0 0 0 0 0 0 0 0 0 0 0 1490 1133 778 469 401 265 1589 1659 1477 1011 1434 1305 1132 927 800 724 555 218 1 29 88 46 42 64 137 220 95 0 0 0 0 0 0 0 0
0 0 0 0 0 0 0 0 0 0 0 0 0 0 1274 1202 633 227 299 157 1289 1638 1299 766 1120 1534 1448 1272 989 815 739 401 70 100 214 157 127 110 137 77 8 0 0 0 0 0 0 0 0
0 0 0 0 0 0 0 0 0 0 0 0 0 0 619 1229 835 897 413 384 700 1543 1197 441 798 1078 1224 1348 1264 920 751 551 394 378 448 343 240 230 208 60 5 0 0 0 0 0 0 0 0
0 0 0 0 0 0 0 0 0 0 0 0 0 0 657 881 565 397 138 227 65 443 1048 410 422 673 919 1108 1165 1021 955 867 743 726 701 391 129 111 101 39 17 0 0 0 0 0 0 0 0
0 0 0 0 0 0 0 0 0 0 0 0 0 0 93 179 156 92 183 0 0 0 527 369 281 299 553 923 818 825 904 808 751 695 589 293 92 221 106 56 55 67 29 0 0 0 0 0 0
0 0 0 0 0 0 0 0 0 0 0 0 0 0 0 0 4 75 92 0 177 276 250 192 31 0 16 489 410 482 553 450 344 408 301 26 22 190 140 200 98 8 7 0 0 0 0 0 0
0 0 0 0 0 0 0 0 0 0 0 0 0 0 0 0 4 50 44 377 445 434 349 20 0 2 247 337 211 230 226 175 93 174 331 180 29 257 341 199 138 90 57 27 0 0 0 4 17
0 0 0 0 0 0 0 0 0 0 0 0 0 0 0 0 0 0 12 564 653 543 602 5 23 13 35 25 222 324 343 201 173 156 414 482 138 415 559 175 302 224 255 257 84 42 62 57 201
0 0 0 0 0 0 0 0 0 0 0 0 0 0 0 0 0 0 0 1 327 503 178 30 70 0 0 21 33 785 833 338 406 458 590 723 588 671 1079 632 604 874 930 701 539 485 1232 999 543
0 0 0 0 0 0 0 0 0 0 0 0 0 0 0 0 0 0 0 0 52 56 314 139 23 0 0 0 0 611 487 531 398 366 912 873 897 534 955 513 186 131 565 385 258 610 867 834 548
0 0 0 0 0 0 0 0 0 0 0 0 0 0 0 0 0 0 0 0 0 13 0 0 0 0 0 0 2 411 522 221 44 95 186 453 411 81 136 83 4 0 14 0 1 0 60 121 253
0 0 0 0 0 0 0 0 0 0 0 0 0 0 0 0 0 0 0 0 3 290 131 60 34 0 0 0 37 307 5 78 23 25 0 30 233 16 0 18 0 0 28 0 0 0 0 318 161
0 0 0 0 0 0 0 0 0 0 0 0 0 0 0 0 0 0 0 0 118 728 581 84 27 28 0 0 0 15 14 0 2 53 96 41 5 17 0 0 0 0 0 0 52 24 129 38 0
0 0 0 0 0 0 0 0 0 0 0 0 0 0 0 0 0 0 0 0 486 994 496 149 42 68 65 90 16 2 26 0 237 157 51 10 0 2 0 0 0 0 520 208 189 59 0 0 0
0 0 0 0 0 0 0 0 0 0 0 0 0 0 0 0 0 0 0 31 656 1031 1254 1072 1094 522 589 347 737 785 536 1117 1169 679 362 435 210 194 178 70 137 58 55 0 0 0 20 8 11
0 0 0 0 0 0 2 0 0 0 0 0 0 0 0 0 0 0 0 242 558 220 1593 1948 2082 1447 1557 1865 1331 805 598 1107 1008 872 1202 956 979 868 166 69 19 29 27 4 15 92 62 88 4
0 0 0 0 0 0 0 0 0 0 0 0 0 0 0 0 0 0 4 397 812 920 1133 1712 1790 1974 1669 1552 1298 858 763 734 811 802 303 54 1 9 21 32 76 92 93 68 67 38 27 30 10
0 0 0 0 0 0 0 0 0 0 0 0 0 0 0 0 0 0 1 321 811 546 784 1277 921 943 1060 1188 1076 960 514 327 273 229 172 192 189 72 69 102 101 122 108 79 76 40 11 4 6
0 0 0 0 0 0 0 0 0 0 2 0 0 0 0 0 0 0 21 183 952 860 965 847 420 275 276 301 255 222 311 200 150 149 63 27 40 49 0 0 0 0 0 0 0 0 0 0 0
0 0 0 0 0 0 0 0 0 0 0 1 0 0 5 0 70 88 220 761 943 830 565 270 117 85 84 59 8 3 8 0 0 0 0 0 0 0 0 0 0 0 0 0 0 0 0 0 0
0 0 0 0 2 0 0 0 35 16 38 23 1 7 48 73 161 300 605 755 645 470 211 78 21 3 0 0 0 0 0 0 0 0 0 0 0 0 0 0 0 0 0 0 0 0 0 0 0
0 0 0 0 0 0 1 12 69 33 5 2 8 49 260 217 292 624 605 448 227 118 3 0 0 0 0 0 0 0 0 0 0 0 0 0 0 0 0 0 0 0 0 0 0 0 0 0 0
0 0 0 0 0 0 0 11 18 21 0 1 36 86 301 291 230 167 13 0 1 0 0 0 0 0 0 0 0 0 0 0 0 0 0 0 0 0 0 0 0 0 0 0 0 0 0 0 0
0 0 0 4 0 4 0 24 1 5 0 0 0 122 5 0 55 57 12 0 0 0 0 0 0 0 0 0 0 0 0 0 0 0 0 0 0 0 0 0 0 0 0 0 0 0 0 0 2

GFSSGP_con_mlcape_123.txt.gz
CAPE
0 0 0 0 0 0 0 0 0 0 0 0 0 0 3 184 294 73 768 528 378 566 873 823 773 637 114 0 0 0 0 0 0 0 0 0 0 38 210 269 145 93 44 159 22 34 76 49 29
0 0 0 0 0 0 0 0 0 0 0 0 0 607 690 542 915 912 833 652 492 741 996 902 913 648 106 0 0 0 0 0 0 0 0 0 0 35 188 205 141 101 41 142 2 141 118 68 27
0 0 0 0 0 0 0 0 0 0 0 0 0 0 828 864 1048 1022 1199 690 746 776 938 924 1138 609 88 0 0 0 0 0 0 0 0 0 0 19 172 242 242 125 7 12 12 71 24 11 7
0 0 0 0 0 0 0 0 0 0 0 0 0 0 464 1578 678 1072 1194 968 682 907 1002 1297 1263 706 183 0 0 0 0 0 0 0 0 0 0 28 111 197 262 140 10 16 13 7 0 0 0
0 0 0 0 0 0 0 0 0 0 0 0 0 0 988 1786 1620 1211 1100 1072 647 935 1045 1439 1284 763 357 43 39 40 18 9 6 0 0 3 51 134 197 248 281 214 74 106 34 3 0 3 21
0 0 0 0 0 0 0 0 0 0 0 0 0 0 1168 1096 1744 1308 1039 754 796 913 1315 1289 1303 802 536 312 189 180 53 20 19 17 53 62 92 208 360 446 379 260 137 104 81 0 0 1 4
0 0 0 0 0 0 0 0 0 0 0 0 0 0 549 1476 1614 1406 975 673 852 1189 1337 1352 1286 991 877 743 427 338 188 69 88 71 65 77 82 221 410 471 421 305 141 77 81 16 6 7 0
0 0 0 0 0 0 0 0 0 0 0 0 0 0 72 1343 1312 1283 986 810 800 995 1142 1182 1088 1042 899 804 690 476 356 213 129 168 106 103 185 248 360 421 418 329 106 44 91 80 45 19 0
0 0 0 0 0 0 0 0 0 0 0 0 0 0 0 1240 1156 1463 1268 1096 788 711 712 850 887 880 859 838 715 566 521 511 323 329 320 180 140 202 248 256 244 290 77 34 19 13 34 42 27
0 0 0 0 0 0 0 0 0 0 0 0 0 107 230 1165 1356 1617 1532 1423 1023 811 831 1005 1025 1072 1014 996 1027 746 639 398 183 174 251 180 131 170 248 297 330 263 110 88 62 36 26 23 0
0 0 0 0 0 0 0 0 0 0 0 0 0 109 803 1121 1312 1134 1208 1523 1334 1216 1292 1271 1118 1070 964 1078 977 904 808 523 290 187 188 232 165 147 167 153 172 193 136 67 47 42 18 0 0
0 0 0 0 0 0 0 0 0 0 0 0 0 79 1012 1248 1106 738 526 1192 1503 1485 1307 1159 1019 849 907 703 718 824 621 478 327 264 292 255 201 88 61 50 31 28 60 23 65 50 46 17 0
0 0 0 0 0 0 0 0 0 0 0 0 0 1 645 1008 799 178 315 847 1296 1428 1230 970 711 640 664 572 649 619 507 461 430 415 451 392 216 85 76 35 26 79 155 177 168 156 126 83 61
0 0 0 0 0 0 0 0 0 0 0 0 0 0 0 0 173 285 275 249 595 830 1013 879 671 609 524 302 361 320 331 486 518 492 500 525 253 141 51 58 174 117 109 60 35 56 53 58 24
0 0 0 0 0 0 0 0 0 0 0 0 0 0 0 0 0 31 491 269 222 293 540 762 558 427 416 335 330 328 276 302 290 313 466 445 242 93 48 82 121 58 12 15 13 0 0 2 3
0 0 0 0 0 0 0 0 0 0 0 0 0 0 0 0 0 0 166 491 294 329 471 587 504 481 356 136 169 188 305 273 215 195 245 313 268 263 78 74 102 51 17 8 16 10 0 0 0
0 0 0 0 0 0 0 0 0 0 0 0 0 0 0 0 0 0 104 461 517 510 480 512 412 268 84 3 54 117 221 257 228 246 260 243 286 239 157 106 89 62 57 44 2 2 0 0 0
0 0 0 0 0 0 0 0 0 0 0 0 0 0 0 0 0 0 57 336 725 560 528 384 251 215 48 0 109 241 142 201 282 380 390 393 383 314 239 99 66 22 27 18 13 0 1 5 17
0 0 0 0 0 0 0 0 0 0 0 0 0 0 0 0 0 0 112 614 952 725 528 444 343 174 33 0 31 82 222 260 337 307 295 395 526 445 351 92 18 6 30 72 26 0 14 68 26
0 0 0 0 0 0 0 0 0 0 0 0 0 0 0 0 0 0 25 467 549 336 483 400 414 216 82 56 30 126 338 223 81 33 42 152 179 241 253 134 184 73 51 40 12 24 35 47 49
0 0 0 0 0 0 0 0 0 0 0 0 0 0 0 0 0 0 0 184 475 563 557 551 523 327 179 94 30 34 48 84 319 106 34 78 110 210 139 110 77 77 102 17 33 66 137 138 144
0 0 0 0 0 0 0 0 0 0 0 0 0 0 0 0 0 0 0 113 364 630 613 650 544 364 261 90 85 126 115 252 133 134 72 163 78 111 85 53 7 24 62 92 162 150 196 242 69
0 0 0 0 0 0 0 0 0 0 0 0 0 0 0 0 0 0 0 0 398 660 504 410 346 263 175 103 138 239 186 209 285 244 346 173 151 202 216 283 278 212 54 124 92 70 57 48 38
0 0 0 0 0 0 0 0 0 0 0 0 0 0 0 0 0 0 90 554 883 852 500 258 287 266 208 214 366 513 817 737 628 564 594 301 324 438 293 65 80 47 36 30 23 5 0 0 0
0 0 0 0 0 0 0 0 0 0 0 0 0 0 0 0 0 0 39 878 1371 1160 842 480 372 302 319 333 645 874 726 570 500 358 292 176 163 133 8 0 0 2 0 0 0 0 0 0 0
0 0 0 0 0 0 0 0 0 0 0 0 0 0 0 0 0 31 495 1256 1109 621 477 441 284 208 185 342 299 169 133 80 46 27 23 1 0 0 0 0 0 0 0 0 0 0 0 0 0
0 0 0 0 0 0 0 0 6 0 0 0 0 4 3 1 356 776 606 344 447 361 410 272 111 64 67 55 21 3 0 0 0 0 0 0 0 0 0 0 0 0 0 0 0 0 0 0 0
0 0 0 0 0 0 0 0 0 0 0 0 1 10 84 176 149 169 219 157 106 76 29 0 0 0 0 0 0 0 0 0 0 0 0 0 0 0 0 0 0 0 0 0 0 0 0 0 0
6 0 0 0 0 0 0 3 0 17 1 5 9 12 12 36 32 6 0 0 0 0 0 0 0 0 0 0 0 0 0 0 0 0 0 0 0 0 0 0 0 0 0 0 0 0 0 0 0
0 0 0 0 0 0 0 6 0 21 30 50 5 1 7 0 0 0 0 0 0 0 0 0 0 0 0 0 0 0 0 0 0 0 0 0 0 0 0 0 0 0 0 0 0 0 0 0 0